Simultaneous Nadir Overpasses (SNOs) Predictions

Prediction of SNOs between GOES-16 and NOAA-19 Satellite Orbit:

Table of predicted SNOs for the next 14.0 days since TLE Epoch: 12/13/2019
Index Date Time (GOES-16) GOES-16 Lat,Lon NOAA-19 Lat,Lon Distance(km) Time Diff (sec)
1 12/13/2019 22:16:28 -0.03, -75.19 0.53, -72.71 281.99 80
2 12/16/2019 10:37:33 0.03, -75.21 0.60, -77.70 284.91 80
3 12/17/2019 10:23:13 0.03, -75.21 -0.05, -74.85 40.50 80
4 12/18/2019 10:11:34 0.03, -75.21 -0.70, -72.00 366.08 80
5 12/20/2019 22:35:19 -0.03, -75.22 -0.45, -76.99 202.19 80
6 12/21/2019 22:20:59 -0.03, -75.23 0.20, -74.14 123.96 80
7 12/22/2019 22:09:21 -0.03, -75.24 0.90, -71.30 450.17 80
8 12/24/2019 10:44:42 0.04, -75.28 0.95, -79.12 438.96 80
9 12/25/2019 10:33:03 0.04, -75.29 0.29, -76.27 112.38 80
10 12/26/2019 10:18:43 0.04, -75.31 -0.37, -73.42 214.41 80




NCC Satellite Simultaneous Nadir Overpasses (SNOs) Prediction Service
